Wind_Speed
16 17 17 18 17 16 16 16 16 16 15 15 16 16 17 17 18 18 19 20 20 21 21 21 22 22 21 21 20 20 19 18 16 15 13 11 9 7 5 3 3 5 7 9
16 17 17 17 17 16 15 15 15 15 15 15 15 16 16 17 18 18 19 19 19 20 21 21 22 22 21 21 20 20 20 19 18 17 15 13 12 11 8 7 6 5 6 8
15 16 16 16 16 15 14 14 14 14 14 14 15 15 16 17 17 18 18 18 18 19 20 20 21 21 21 21 21 21 21 20 20 19 18 16 15 13 12 10 9 9 8 9
14 14 15 14 14 14 13 13 13 13 13 13 14 15 15 16 17 17 18 18 18 18 19 20 20 21 21 21 21 21 21 21 21 20 19 18 17 16 15 13 12 11 11 11
13 13 13 13 12 12 11 11 11 11 11 12 13 13 15 16 17 17 17 17 18 18 19 19 20 20 20 20 21 21 21 21 21 20 19 19 18 18 17 16 15 14 14 14
10 11 12 12 11 11 10 10 10 10 9 10 11 12 13 14 15 16 16 16 17 17 18 19 19 19 19 20 20 21 21 21 21 20 20 19 19 19 19 19 17 17 16 16
7 9 10 11 10 10 10 9 10 9 9 8 9 10 11 12 13 14 15 15 16 16 17 18 18 19 19 19 20 20 20 20 20 20 20 20 20 20 20 20 19 19 18 18
5 6 7 9 9 10 9 9 9 9 8 7 8 8 9 11 12 12 13 14 14 15 16 16 17 18 18 18 19 20 20 20 20 21 21 21 21 21 21 21 21 21 20 20
5 5 5 6 7 8 9 9 8 8 8 8 7 8 8 9 11 11 12 12 13 13 14 15 16 16 17 18 19 19 20 21 21 21 21 21 21 21 21 22 22 22 22 21
8 7 6 6 6 7 8 8 8 8 7 8 8 8 8 9 10 11 11 11 11 12 12 13 14 15 16 17 18 19 19 20 21 21 21 21 21 21 21 22 22 22 23 22
10 9 9 8 8 7 7 7 7 7 7 7 7 8 8 8 9 10 10 11 11 11 11 12 13 13 14 15 17 18 19 20 21 21 21 21 21 21 22 22 23 23 23 23
13 12 11 10 10 9 9 8 7 7 7 7 7 7 7 7 7 8 9 10 11 11 11 11 11 12 12 13 15 16 18 19 20 21 21 21 21 22 22 22 22 23 23 23
15 14 13 13 12 12 11 10 9 8 7 7 7 7 7 7 7 8 8 9 10 10 11 11 11 11 11 12 13 14 16 17 18 20 21 21 21 21 22 22 22 22 22 23
18 17 16 16 15 14 14 13 12 11 10 9 9 8 7 7 7 7 8 8 9 9 9 10 10 10 10 11 12 13 14 15 16 18 20 21 21 21 21 21 21 21 22 22
22 21 19 18 18 17 17 16 16 15 13 12 11 10 9 9 8 8 8 8 8 9 9 9 9 9 10 10 10 11 12 13 14 16 17 19 20 20 21 21 21 21 21 21
25 23 22 22 21 20 20 19 19 18 17 16 14 13 12 11 10 9 8 8 8 8 8 8 8 9 9 9 10 10 11 11 12 13 15 16 17 19 19 20 20 20 20 20
29 28 27 26 24 23 23 22 22 21 20 19 18 16 15 14 13 12 11 10 9 9 8 8 8 8 8 9 10 10 10 10 11 11 12 14 15 16 17 17 18 18 18 18
33 32 31 29 28 26 26 25 25 24 23 22 21 19 18 18 17 16 14 13 12 11 10 9 9 8 8 8 9 9 10 10 10 10 10 11 12 13 14 15 15 16 16 16
38 36 35 34 32 30 29 28 28 27 26 25 24 23 21 20 19 18 17 16 15 14 13 12 11 10 9 9 9 9 9 9 10 10 10 10 10 10 11 11 12 12 13 13
43 41 40 38 37 35 33 32 32 30 29 28 27 26 25 23 22 21 20 19 18 17 16 15 14 13 12 11 10 10 9 9 10 10 10 10 9 9 9 9 9 9 9 9
48 46 45 43 41 39 38 37 36 34 33 32 31 30 29 27 25 24 22 21 20 19 18 17 16 16 15 14 13 12 11 11 10 10 10 10 10 9 9 8 8 7 7 7
53 51 50 48 46 45 43 42 40 39 37 36 35 34 32 31 29 28 26 25 23 22 21 20 19 18 17 17 16 15 14 14 13 12 12 11 11 11 10 10 9 8 8 7
57 56 54 52 51 49 48 47 45 44 42 40 39 38 36 35 33 31 30 29 27 26 25 24 23 22 21 20 19 18 17 17 16 15 15 14 13 13 13 12 12 11 11 10
61 60 59 57 56 54 52 51 50 48 47 46 44 43 41 39 37 36 36 34 32 30 29 28 27 26 25 24 23 22 21 20 19 19 18 17 17 16 16 15 15 15 15 14
65 64 63 62 61 59 57 56 54 53 52 50 49 48 46 44 42 41 40 39 37 35 34 34 32 31 30 29 28 27 26 25 24 23 22 21 21 20 19 19 19 19 18 18
68 68 67 67 66 64 62 61 59 58 57 56 54 53 51 50 48 46 45 44 42 41 40 39 37 36 35 34 33 32 31 30 29 28 27 26 26 25 24 24 23 23 22 22
67 68 70 70 70 69 68 66 65 63 62 61 60 58 57 55 54 53 51 50 48 47 45 44 43 41 40 39 38 37 36 35 34 33 33 32 31 30 29 29 28 27 27 27
Wind_Direction
41 40 40 40 42 43 44 46 47 49 53 55 58 58 56 54 53 53 52 50 50 49 48 47 46 45 45 45 45 45 44 43 42 42 43 44 42 36 24 4 314 283 272 266
41 40 40 41 42 43 47 49 49 51 54 56 59 57 54 53 51 51 51 50 48 47 46 46 45 44 45 45 45 44 44 44 44 45 46 46 43 37 29 20 5 336 308 292
40 39 39 40 39 42 47 50 51 51 53 55 56 54 53 49 47 48 48 46 45 44 44 44 44 44 45 46 46 46 45 45 45 46 46 45 41 35 28 20 11 359 342 322
38 36 38 37 39 43 46 50 51 50 49 50 52 51 48 45 45 46 45 44 44 43 43 43 44 44 45 45 45 45 44 44 44 44 42 40 36 32 26 19 12 3 352 340
35 34 35 34 35 38 41 44 45 46 46 47 47 45 45 43 41 42 42 42 43 44 43 43 43 43 44 44 44 43 42 42 41 40 39 37 34 31 27 21 15 8 1 352
29 29 29 29 30 31 32 37 34 38 39 40 40 41 42 41 38 39 40 40 41 42 42 41 41 42 42 42 41 40 39 38 37 37 35 34 32 29 26 22 18 12 6 0
16 21 23 23 23 23 25 24 26 28 31 33 34 34 34 34 32 33 35 35 37 37 39 40 40 40 40 39 38 37 35 34 34 33 33 31 29 27 25 21 18 14 10 5
347 358 8 13 16 18 16 17 18 20 21 22 22 22 23 24 24 26 28 29 32 35 37 37 38 38 38 37 35 34 33 32 31 31 30 29 27 25 23 20 18 16 14 12
305 320 337 350 0 5 7 8 8 9 12 14 11 11 12 13 16 18 21 23 26 29 32 34 35 35 36 35 34 33 32 30 30 29 28 27 26 24 23 21 20 19 18 17
283 289 296 310 326 340 350 357 360 360 2 5 7 5 5 6 8 11 15 18 20 22 25 27 29 31 32 32 32 31 30 29 29 28 28 27 25 25 24 23 23 23 23 24
272 274 278 285 294 305 318 332 341 347 350 353 357 360 360 3 6 8 10 13 15 17 20 22 24 26 27 27 28 28 28 28 28 28 28 27 27 26 27 27 27 28 29 31
264 267 269 272 275 280 287 297 310 321 329 335 340 348 354 356 358 1 5 9 12 14 15 17 20 22 23 22 23 25 26 27 27 27 27 27 28 28 29 30 31 32 33 35
260 261 263 266 267 269 273 276 282 291 300 308 315 324 335 344 346 347 352 357 4 9 13 15 16 18 19 20 21 22 23 24 25 26 27 28 29 30 31 33 35 36 37 39
258 259 260 262 263 264 265 267 269 273 280 286 293 300 309 321 332 338 340 344 350 355 1 6 9 11 13 14 16 19 21 22 24 25 27 28 30 31 33 34 36 39 41 42
257 258 259 260 260 261 262 262 263 264 267 272 277 283 288 295 306 318 328 334 338 342 345 351 359 5 7 9 11 13 16 18 21 23 25 27 29 31 33 35 37 40 43 45
258 258 259 259 259 259 259 259 260 260 261 263 267 271 275 279 284 292 303 314 323 330 335 339 346 353 359 4 5 7 10 13 16 19 22 25 27 30 32 35 37 40 43 47
259 259 258 258 259 259 259 258 258 259 259 259 261 264 267 270 273 278 284 291 299 306 315 325 332 339 346 351 356 358 0 4 7 11 15 20 23 26 29 32 35 38 42 46
256 257 257 258 258 258 258 258 258 258 258 258 260 261 263 265 268 270 274 277 281 286 293 301 310 320 328 336 343 349 352 353 356 360 4 9 15 20 24 28 32 36 40 44
253 254 254 255 255 256 257 258 258 258 258 258 259 259 261 263 265 267 269 271 273 276 279 284 291 297 305 314 323 330 336 341 345 347 351 355 360 6 12 18 23 29 34 39
252 251 252 253 253 254 255 256 256 257 258 258 258 259 260 261 262 264 266 267 269 271 273 276 279 284 289 295 302 309 317 324 329 332 336 340 343 347 352 358 5 12 19 26
250 250 250 251 251 252 253 254 255 256 256 257 257 258 259 260 261 262 263 264 266 268 270 272 274 276 279 283 288 293 299 304 310 316 319 321 325 329 332 336 339 342 348 356
248 249 249 249 249 250 250 252 253 254 254 255 256 256 257 258 259 260 261 261 263 265 266 268 270 272 274 277 280 284 287 291 295 299 303 305 307 309 311 313 316 317 317 316
245 246 247 247 248 248 248 249 250 251 252 253 253 254 255 256 257 258 259 260 260 261 263 265 266 268 270 273 275 277 280 282 284 287 290 292 294 295 296 297 297 298 298 298
243 243 244 245 245 246 246 246 247 248 249 250 251 252 253 254 255 256 257 258 259 259 260 262 263 265 267 269 271 273 274 276 278 279 281 283 284 285 286 286 287 287 287 286
244 242 242 242 243 243 244 244 244 245 246 247 248 249 251 252 252 253 254 256 257 257 258 260 261 263 265 266 268 269 270 271 273 274 275 276 277 278 279 279 280 280 280 279
244 242 240 240 241 241 241 242 242 243 243 244 246 247 249 250 251 252 253 254 255 256 257 259 260 261 263 265 266 267 268 269 269 270 272 272 273 273 274 274 274 275 275 275
245 243 240 239 239 239 239 240 240 241 242 243 244 246 247 248 250 251 252 253 254 255 256 258 259 260 261 263 264 265 266 267 268 269 270 270 271 271 271 271 271 271 271 271
Height
5884 5881 5878 5875 5872 5868 5865 5863 5860 5857 5854 5851 5848 5845 5842 5839 5836 5833 5830 5826 5823 5820 5816 5812 5808 5805 5801 5797 5794 5791 5787 5784 5782 5779 5777 5775 5774 5773 5771 5770 5769 5769 5768 5768
5886 5883 5880 5877 5874 5871 5868 5865 5863 5860 5858 5854 5851 5848 5846 5843 5840 5837 5833 5830 5827 5823 5820 5816 5812 5809 5805 5802 5798 5795 5791 5788 5785 5782 5780 5778 5776 5774 5772 5770 5769 5767 5766 5765
5888 5885 5883 5880 5877 5874 5871 5868 5866 5863 5861 5858 5855 5852 5849 5846 5843 5840 5837 5834 5830 5827 5823 5820 5816 5813 5809 5806 5802 5799 5795 5792 5788 5785 5783 5780 5778 5775 5773 5771 5768 5766 5764 5761
5890 5888 5885 5884 5879 5876 5874 5871 5868 5866 5863 5861 5858 5855 5852 5849 5846 5843 5840 5837 5834 5830 5827 5824 5820 5817 5813 5810 5806 5803 5799 5795 5792 5789 5786 5783 5780 5777 5774 5771 5768 5765 5762 5759
5891 5889 5887 5884 5881 5878 5876 5874 5871 5868 5866 5863 5861 5858 5855 5852 5849 5846 5843 5840 5837 5834 5831 5827 5824 5820 5817 5814 5810 5806 5803 5799 5796 5792 5789 5785 5782 5778 5775 5771 5768 5764 5761 5757
5892 5890 5888 5887 5883 5880 5879 5876 5873 5871 5868 5866 5863 5861 5859 5855 5852 5849 5846 5843 5840 5837 5834 5831 5827 5824 5821 5817 5814 5810 5806 5803 5799 5795 5792 5788 5784 5780 5776 5772 5768 5764 5760 5756
5892 5890 5889 5887 5884 5882 5881 5879 5875 5872 5870 5868 5865 5864 5861 5858 5855 5852 5849 5846 5843 5840 5837 5834 5830 5827 5824 5821 5817 5813 5810 5806 5802 5798 5794 5791 5787 5783 5778 5774 5769 5765 5760 5755
5891 5891 5891 5887 5884 5883 5882 5878 5876 5873 5871 5869 5867 5864 5862 5859 5857 5854 5851 5848 5845 5843 5839 5836 5833 5830 5827 5824 5820 5816 5813 5809 5805 5801 5797 5793 5789 5785 5780 5776 5771 5766 5760 5755
5891 5891 5889 5886 5885 5883 5881 5879 5876 5874 5872 5870 5868 5865 5863 5861 5858 5855 5853 5850 5847 5845 5842 5839 5836 5833 5830 5826 5823 5819 5816 5812 5808 5804 5800 5796 5792 5787 5783 5778 5773 5767 5762 5756
5888 5887 5886 5885 5884 5882 5881 5879 5877 5875 5873 5870 5868 5866 5864 5861 5859 5856 5854 5851 5849 5846 5843 5841 5838 5835 5832 5829 5826 5822 5819 5815 5811 5807 5803 5798 5794 5790 5785 5780 5775 5770 5764 5758
5885 5885 5884 5883 5882 5881 5879 5878 5876 5874 5872 5870 5868 5866 5864 5862 5859 5857 5855 5852 5850 5847 5845 5842 5839 5837 5834 5831 5828 5825 5821 5817 5813 5809 5805 5801 5797 5792 5788 5783 5778 5773 5768 5762
5881 5881 5880 5880 5879 5878 5877 5876 5875 5873 5872 5870 5868 5866 5864 5862 5860 5858 5855 5853 5851 5848 5846 5843 5841 5838 5836 5833 5830 5827 5824 5820 5816 5812 5808 5804 5800 5796 5791 5787 5782 5777 5772 5767
5876 5876 5876 5875 5875 5875 5874 5873 5872 5871 5870 5869 5867 5865 5863 5861 5859 5857 5855 5853 5851 5849 5846 5844 5842 5839 5837 5834 5832 5829 5826 5823 5819 5815 5812 5807 5803 5799 5795 5791 5786 5782 5777 5773
5870 5871 5871 5871 5871 5870 5870 5869 5869 5868 5867 5866 5865 5864 5862 5860 5859 5857 5855 5853 5851 5849 5847 5845 5842 5840 5838 5835 5833 5830 5828 5825 5822 5818 5815 5811 5807 5803 5799 5794 5790 5787 5782 5778
5864 5865 5865 5865 5865 5865 5865 5864 5864 5864 5863 5863 5862 5861 5860 5859 5857 5856 5854 5852 5850 5849 5847 5845 5843 5840 5838 5836 5834 5831 5829 5826 5823 5820 5817 5814 5810 5806 5802 5799 5795 5791 5787 5784
5857 5858 5858 5858 5859 5859 5859 5859 5859 5859 5858 5858 5858 5857 5856 5856 5855 5854 5852 5851 5849 5848 5846 5844 5842 5840 5838 5836 5834 5832 5829 5827 5825 5822 5819 5816 5813 5810 5806 5803 5799 5796 5792 5789
5848 5849 5850 5850 5851 5852 5852 5852 5852 5853 5853 5853 5852 5852 5852 5852 5851 5850 5850 5849 5847 5846 5844 5843 5841 5839 5838 5836 5834 5832 5830 5827 5825 5823 5821 5818 5815 5812 5809 5806 5803 5800 5797 5794
5838 5839 5840 5842 5842 5843 5844 5845 5845 5845 5846 5846 5846 5847 5847 5846 5846 5846 5846 5845 5844 5843 5842 5841 5839 5838 5836 5835 5833 5831 5829 5827 5825 5823 5821 5819 5816 5814 5812 5809 5806 5804 5801 5799
5825 5827 5829 5831 5832 5833 5835 5836 5837 5837 5838 5839 5840 5840 5840 5840 5841 5841 5841 5840 5840 5839 5838 5837 5836 5835 5834 5833 5831 5830 5828 5826 5824 5822 5821 5819 5817 5815 5813 5811 5808 5806 5804 5802
5811 5814 5816 5818 5820 5823 5824 5825 5827 5828 5829 5830 5831 5832 5833 5834 5834 5834 5835 5834 5834 5834 5834 5833 5832 5831 5830 5829 5828 5827 5826 5824 5823 5821 5819 5818 5816 5814 5813 5811 5809 5808 5806 5804
5796 5799 5802 5805 5807 5810 5812 5814 5816 5818 5819 5821 5822 5823 5824 5825 5826 5827 5827 5828 5828 5828 5828 5827 5827 5826 5826 5825 5824 5823 5822 5821 5820 5819 5817 5816 5815 5813 5812 5810 5809 5807 5806 5805
5779 5782 5786 5789 5793 5796 5798 5801 5803 5805 5807 5809 5811 5812 5814 5816 5817 5818 5819 5820 5821 5821 5821 5821 5821 5820 5820 5819 5819 5818 5818 5817 5816 5815 5814 5813 5812 5811 5810 5808 5807 5806 5805 5803
5762 5765 5768 5772 5776 5779 5783 5786 5789 5792 5794 5797 5798 5800 5802 5804 5806 5808 5809 5810 5812 5812 5812 5813 5813 5813 5813 5813 5812 5812 5812 5811 5811 5810 5809 5809 5808 5807 5806 5805 5804 5803 5802 5801
5742 5746 5750 5753 5757 5761 5765 5769 5773 5776 5779 5782 5784 5787 5789 5792 5794 5796 5797 5799 5801 5802 5803 5803 5804 5804 5804 5804 5805 5804 5804 5804 5804 5804 5803 5803 5802 5802 5801 5800 5799 5799 5798 5797
5720 5725 5730 5734 5738 5742 5746 5751 5755 5758 5762 5765 5768 5771 5774 5777 5780 5782 5784 5786 5788 5789 5791 5792 5793 5794 5795 5795 5795 5796 5796 5796 5796 5796 5795 5795 5795 5795 5794 5794 5793 5793 5792 5791
5695 5702 5707 5712 5717 5721 5726 5730 5735 5739 5743 5747 5750 5754 5757 5760 5763 5766 5769 5771 5773 5775 5777 5779 5780 5782 5783 5784 5784 5785 5786 5786 5786 5786 5786 5786 5786 5786 5786 5786 5785 5785 5784 5784
5670 5676 5683 5688 5694 5699 5704 5708 5713 5718 5723 5727 5731 5735 5739 5742 5745 5748 5751 5754 5757 5759 5762 5764 5766 5768 5770 5771 5772 5773 5773 5774 5775 5775 5775 5776 5776 5776 5776 5776 5776 5775 5775 5775